• In Deutschland
  • Länderverzeichnis
  • Für 7 Tage
  • Wassertemperatur
  • Satellitenkarten
  • Wetterkarte
  • Widgets
  • user-avatar
    Anmelden

    Stündliche Wetter Bulyk

    Heute, 22 April, Sonntag

    Zeit Temperatur Niederschläge Wind Luftdruck Luftfeuchtigkeit
    00:00 +1°C° 0 mm 1 m/S 656 mmHg 70%
    01:00 +1°C° 0 mm 1 m/S 656 mmHg 70%
    02:00 +1°C° 0 mm 1 m/S 656 mmHg 71%
    03:00 +1°C° 0 mm 1 m/S 656 mmHg 72%
    04:00 0°C° 0 mm 1 m/S 657 mmHg 72%
    05:00 +2°C° 0 mm 1 m/S 657 mmHg 69%
    06:00 +3°C° 0 mm 1 m/S 657 mmHg 65%
    07:00 +5°C° 0 mm 1 m/S 658 mmHg 58%
    08:00 +6°C° 0 mm 2 m/S 658 mmHg 53%
    09:00 +8°C° 0 mm 2 m/S 658 mmHg 48%
    10:00 +9°C° 0 mm 3 m/S 658 mmHg 43%
    11:00 +11°C° 0 mm 3 m/S 658 mmHg 39%
    12:00 +12°C° 0 mm 4 m/S 658 mmHg 34%
    13:00 +13°C° 0 mm 4 m/S 658 mmHg 31%
    14:00 +13°C° 0 mm 4 m/S 658 mmHg 30%
    15:00 +13°C° 0 mm 4 m/S 658 mmHg 30%
    16:00 +13°C° 0 mm 5 m/S 658 mmHg 30%
    17:00 +11°C° 0 mm 4 m/S 657 mmHg 33%
    18:00 +10°C° 0 mm 4 m/S 657 mmHg 37%
    19:00 +8°C° 0 mm 3 m/S 656 mmHg 40%
    20:00 +7°C° 0 mm 3 m/S 656 mmHg 43%
    21:00 +5°C° 0 mm 3 m/S 656 mmHg 46%
    22:00 +4°C° 0 mm 2 m/S 656 mmHg 49%
    23:00 +4°C° 0 mm 2 m/S 656 mmHg 51%

    Morgen, 23 April, Montag

    Zeit Temperatur Niederschläge Wind Luftdruck Luftfeuchtigkeit
    00:00 +3°C° 0 mm 2 m/S 656 mmHg 53%
    01:00 +3°C° 0 mm 2 m/S 656 mmHg 56%
    02:00 +2°C° 0 mm 2 m/S 655 mmHg 57%
    03:00 +2°C° 0 mm 2 m/S 655 mmHg 59%
    04:00 +1°C° 0 mm 2 m/S 655 mmHg 61%
    05:00 +3°C° 0 mm 2 m/S 656 mmHg 57%
    06:00 +4°C° 0 mm 2 m/S 656 mmHg 53%
    07:00 +5°C° 0 mm 2 m/S 656 mmHg 50%
    08:00 +8°C° 0 mm 2 m/S 657 mmHg 44%
    09:00 +10°C° 0 mm 3 m/S 657 mmHg 37%
    10:00 +13°C° 0 mm 3 m/S 658 mmHg 31%
    11:00 +14°C° 0 mm 3 m/S 658 mmHg 27%
    12:00 +16°C° 0 mm 2 m/S 658 mmHg 23%
    13:00 +18°C° 0 mm 2 m/S 658 mmHg 20%
    14:00 +18°C° 0 mm 2 m/S 657 mmHg 19%
    15:00 +18°C° 0 mm 2 m/S 657 mmHg 18%
    16:00 +20°C° 0 mm 1 m/S 657 mmHg 17%
    17:00 +16°C° 0 mm 1 m/S 656 mmHg 21%
    18:00 +14°C° 0 mm 1 m/S 655 mmHg 25%
    19:00 +12°C° 0 mm 1 m/S 655 mmHg 28%
    20:00 +11°C° 0 mm 1 m/S 654 mmHg 30%
    21:00 +10°C° 0 mm 1 m/S 654 mmHg 32%
    22:00 +9°C° 0 mm 1 m/S 654 mmHg 34%
    23:00 +8°C° 0 mm 1 m/S 654 mmHg 34%

    übermorgen, 24 April, Dienstag

    Zeit Temperatur Niederschläge Wind Luftdruck Luftfeuchtigkeit
    00:00 +7°C° 0 mm 1 m/S 654 mmHg 35%
    01:00 +7°C° 0 mm 1 m/S 653 mmHg 35%
    02:00 +7°C° 0 mm 1 m/S 653 mmHg 35%
    03:00 +6°C° 0 mm 1 m/S 653 mmHg 34%
    04:00 +6°C° 0 mm 1 m/S 652 mmHg 34%
    05:00 +7°C° 0 mm 1 m/S 652 mmHg 33%
    06:00 +7°C° 0 mm 2 m/S 653 mmHg 33%
    07:00 +9°C° 0 mm 2 m/S 653 mmHg 32%
    08:00 +12°C° 0 mm 2 m/S 653 mmHg 27%
    09:00 +14°C° 0 mm 3 m/S 653 mmHg 23%
    10:00 +18°C° 0 mm 3 m/S 654 mmHg 19%
    11:00 +19°C° 0 mm 3 m/S 653 mmHg 17%
    12:00 +21°C° 0 mm 4 m/S 653 mmHg 16%
    13:00 +22°C° 0 mm 4 m/S 653 mmHg 14%
    14:00 +22°C° 0 mm 4 m/S 652 mmHg 15%
    15:00 +22°C° 0 mm 4 m/S 652 mmHg 15%
    16:00 +23°C° 0 mm 4 m/S 651 mmHg 15%
    17:00 +20°C° 0 mm 3 m/S 651 mmHg 20%
    18:00 +18°C° 0 mm 3 m/S 650 mmHg 24%
    19:00 +15°C° 0 mm 2 m/S 649 mmHg 29%
    20:00 +14°C° 0 mm 2 m/S 649 mmHg 32%
    21:00 +12°C° 0 mm 2 m/S 649 mmHg 34%
    22:00 +10°C° 0 mm 2 m/S 649 mmHg 37%
    23:00 +9°C° 0 mm 3 m/S 649 mmHg 43%

    25 April, Mittwoch

    Zeit Temperatur Niederschläge Wind Luftdruck Luftfeuchtigkeit
    00:00 +8°C° 0 mm 3 m/S 649 mmHg 48%
    01:00 +7°C° 0 mm 3 m/S 649 mmHg 54%
    02:00 +7°C° 0 mm 3 m/S 650 mmHg 62%
    03:00 +5°C° 0 mm 3 m/S 650 mmHg 70%
    04:00 +5°C° 0 mm 2 m/S 650 mmHg 77%
    05:00 +6°C° 0 mm 2 m/S 651 mmHg 74%
    06:00 +6°C° 0 mm 2 m/S 651 mmHg 71%
    07:00 +7°C° 0 mm 2 m/S 652 mmHg 68%
    08:00 +8°C° 0 mm 2 m/S 653 mmHg 61%
    09:00 +10°C° 0 mm 2 m/S 653 mmHg 55%
    10:00 +12°C° 0 mm 2 m/S 654 mmHg 48%
    11:00 +13°C° 0 mm 2 m/S 654 mmHg 43%
    12:00 +14°C° 0 mm 2 m/S 654 mmHg 39%
    13:00 +15°C° 0 mm 2 m/S 654 mmHg 34%
    14:00 +16°C° 0 mm 2 m/S 653 mmHg 31%
    15:00 +16°C° 0 mm 2 m/S 653 mmHg 29%
    16:00 +18°C° 0 mm 1 m/S 653 mmHg 26%
    17:00 +15°C° 0 mm 2 m/S 652 mmHg 31%
    18:00 +14°C° 0 mm 2 m/S 652 mmHg 36%
    19:00 +12°C° 0 mm 2 m/S 651 mmHg 40%
    20:00 +10°C° 0 mm 2 m/S 651 mmHg 45%
    21:00 +9°C° 0 mm 1 m/S 651 mmHg 49%
    22:00 +8°C° 0 mm 1 m/S 651 mmHg 54%
    23:00 +8°C° 0 mm 1 m/S 650 mmHg 57%

    26 April, Donnerstag

    Zeit Temperatur Niederschläge Wind Luftdruck Luftfeuchtigkeit
    00:00 +7°C° 0 mm 1 m/S 650 mmHg 59%
    01:00 +6°C° 0 mm 0 m/S 650 mmHg 62%
    02:00 +5°C° 0 mm 0 m/S 650 mmHg 63%
    03:00 +6°C° 0 mm 1 m/S 650 mmHg 64%
    04:00 +6°C° 0 mm 1 m/S 650 mmHg 65%
    05:00 +8°C° 0 mm 1 m/S 650 mmHg 59%
    06:00 +9°C° 0 mm 1 m/S 651 mmHg 53%
    07:00 +11°C° 0 mm 1 m/S 652 mmHg 47%
    08:00 +13°C° 0 mm 1 m/S 653 mmHg 42%
    09:00 +15°C° 0 mm 1 m/S 653 mmHg 37%
    10:00 +19°C° 0 mm 1 m/S 654 mmHg 32%
    11:00 +19°C° 0 mm 1 m/S 654 mmHg 33%
    12:00 +20°C° 0 mm 1 m/S 654 mmHg 33%
    13:00 +20°C° 0 mm 1 m/S 654 mmHg 34%
    14:00 +19°C° 0 mm 2 m/S 653 mmHg 35%
    15:00 +19°C° 0 mm 2 m/S 653 mmHg 36%
    16:00 +19°C° 0 mm 2 m/S 653 mmHg 37%
    17:00 +17°C° 0 mm 3 m/S 653 mmHg 45%
    18:00 +13°C° 0 mm 3 m/S 652 mmHg 53%
    19:00 +11°C° 0 mm 4 m/S 652 mmHg 61%
    20:00 +10°C° 0 mm 4 m/S 651 mmHg 67%
    21:00 +8°C° 0 mm 3 m/S 651 mmHg 72%
    22:00 +5°C° 0 mm 3 m/S 651 mmHg 77%
    23:00 +5°C° 0 mm 3 m/S 651 mmHg 77%

    27 April, Freitag

    Zeit Temperatur Niederschläge Wind Luftdruck Luftfeuchtigkeit
    00:00 +4°C° 0 mm 3 m/S 652 mmHg 77%
    01:00 +3°C° 0 mm 3 m/S 652 mmHg 77%
    02:00 +3°C° 0,1 mm 3 m/S 652 mmHg 76%
    03:00 +3°C° 0,1 mm 3 m/S 653 mmHg 75%
    04:00 +4°C° 0,1 mm 2 m/S 653 mmHg 74%
    05:00 +4°C° 0,1 mm 2 m/S 654 mmHg 72%
    06:00 +5°C° 0,1 mm 2 m/S 654 mmHg 69%
    07:00 +6°C° 0,1 mm 1 m/S 655 mmHg 67%
    08:00 +8°C° 0 mm 1 m/S 655 mmHg 56%
    09:00 +10°C° 0 mm 1 m/S 656 mmHg 45%
    10:00 +12°C° 0 mm 2 m/S 656 mmHg 34%
    11:00 +13°C° 0 mm 2 m/S 656 mmHg 31%
    12:00 +14°C° 0 mm 2 m/S 656 mmHg 27%
    13:00 +15°C° 0 mm 2 m/S 656 mmHg 23%
    14:00 +15°C° 0 mm 2 m/S 655 mmHg 23%
    15:00 +15°C° 0 mm 2 m/S 655 mmHg 23%
    16:00 +15°C° 0 mm 2 m/S 654 mmHg 22%
    17:00 +14°C° 0 mm 2 m/S 654 mmHg 26%
    18:00 +12°C° 0 mm 2 m/S 653 mmHg 30%
    19:00 +10°C° 0 mm 2 m/S 653 mmHg 34%
    20:00 +9°C° 0 mm 2 m/S 653 mmHg 37%
    21:00 +8°C° 0 mm 2 m/S 653 mmHg 41%
    22:00 +7°C° 0 mm 2 m/S 653 mmHg 44%
    23:00 +7°C° 0 mm 2 m/S 653 mmHg 47%
    Mehr zeigen